• In United Kingdom
  • List of Countries
  • For 7 days
  • Water Temperature
  • Satellite Maps
  • Weather Map
  • Weather Widgets
  • user-avatar
    Login

    Hourly Weather Oaxaca

    Today, 25 November, Saturday

    Time Temperature Precipitation Wind Pressure Humidity
    00:00 +13°C° 0 mm 1 mps 632 mmHg 89%
    01:00 +13°C° 0 mm 1 mps 632 mmHg 89%
    02:00 +13°C° 0 mm 1 mps 632 mmHg 89%
    03:00 +13°C° 0 mm 1 mps 631 mmHg 89%
    04:00 +13°C° 0 mm 1 mps 631 mmHg 90%
    05:00 +13°C° 0 mm 1 mps 631 mmHg 90%
    06:00 +13°C° 0 mm 1 mps 631 mmHg 91%
    07:00 +15°C° 0 mm 1 mps 632 mmHg 82%
    08:00 +18°C° 0 mm 1 mps 633 mmHg 73%
    09:00 +21°C° 0 mm 1 mps 634 mmHg 64%
    10:00 +22°C° 0 mm 1 mps 635 mmHg 56%
    11:00 +24°C° 0 mm 1 mps 635 mmHg 48%
    12:00 +26°C° 0 mm 1 mps 636 mmHg 40%
    13:00 +26°C° 0 mm 1 mps 635 mmHg 40%
    14:00 +26°C° 0 mm 1 mps 635 mmHg 40%
    15:00 +27°C° 0 mm 1 mps 634 mmHg 39%
    16:00 +24°C° 0 mm 1 mps 634 mmHg 49%
    17:00 +22°C° 0 mm 1 mps 633 mmHg 59%
    18:00 +20°C° 0 mm 1 mps 632 mmHg 69%
    19:00 +19°C° 0 mm 1 mps 633 mmHg 75%
    20:00 +18°C° 0 mm 1 mps 633 mmHg 81%
    21:00 +16°C° 0 mm 1 mps 633 mmHg 87%
    22:00 +16°C° 0 mm 1 mps 633 mmHg 88%
    23:00 +16°C° 0 mm 1 mps 633 mmHg 89%

    Tomorrow, 26 November, Sunday

    Time Temperature Precipitation Wind Pressure Humidity
    00:00 +15°C° 0 mm 1 mps 633 mmHg 90%
    01:00 +15°C° 0 mm 1 mps 633 mmHg 90%
    02:00 +14°C° 0 mm 1 mps 633 mmHg 91%
    03:00 +14°C° 0 mm 1 mps 632 mmHg 91%
    04:00 +14°C° 0 mm 1 mps 632 mmHg 90%
    05:00 +13°C° 0 mm 1 mps 632 mmHg 89%
    06:00 +13°C° 0 mm 1 mps 632 mmHg 88%
    07:00 +15°C° 0 mm 1 mps 633 mmHg 80%
    08:00 +16°C° 0 mm 2 mps 634 mmHg 72%
    09:00 +18°C° 0 mm 2 mps 636 mmHg 63%
    10:00 +20°C° 0 mm 2 mps 636 mmHg 56%
    11:00 +21°C° 0 mm 2 mps 636 mmHg 48%
    12:00 +24°C° 0 mm 2 mps 637 mmHg 41%
    13:00 +24°C° 0 mm 3 mps 636 mmHg 40%
    14:00 +24°C° 0 mm 3 mps 636 mmHg 40%
    15:00 +25°C° 0 mm 3 mps 635 mmHg 39%
    16:00 +21°C° 0 mm 3 mps 634 mmHg 49%
    17:00 +19°C° 0 mm 2 mps 634 mmHg 60%
    18:00 +17°C° 0 mm 2 mps 633 mmHg 70%
    19:00 +16°C° 0 mm 2 mps 634 mmHg 75%
    20:00 +15°C° 0 mm 2 mps 634 mmHg 81%
    21:00 +14°C° 0 mm 2 mps 634 mmHg 87%
    22:00 +14°C° 0 mm 2 mps 634 mmHg 88%
    23:00 +14°C° 0 mm 2 mps 634 mmHg 89%

    Day after tomorrow, 27 November, Monday

    Time Temperature Precipitation Wind Pressure Humidity
    00:00 +13°C° 0 mm 2 mps 634 mmHg 90%
    01:00 +13°C° 0 mm 2 mps 634 mmHg 91%
    02:00 +13°C° 0 mm 2 mps 633 mmHg 92%
    03:00 +13°C° 0 mm 2 mps 633 mmHg 92%
    04:00 +13°C° 0 mm 2 mps 633 mmHg 93%
    05:00 +13°C° 0 mm 2 mps 633 mmHg 93%
    06:00 +13°C° 0 mm 2 mps 633 mmHg 94%
    07:00 +14°C° 0 mm 2 mps 633 mmHg 88%
    08:00 +15°C° 0 mm 2 mps 634 mmHg 82%
    09:00 +16°C° 0 mm 2 mps 635 mmHg 76%
    10:00 +18°C° 0 mm 2 mps 635 mmHg 67%
    11:00 +20°C° 0 mm 2 mps 635 mmHg 58%
    12:00 +23°C° 0 mm 2 mps 636 mmHg 49%
    13:00 +23°C° 0 mm 2 mps 635 mmHg 47%
    14:00 +23°C° 0 mm 2 mps 635 mmHg 46%
    15:00 +24°C° 0 mm 2 mps 634 mmHg 45%
    16:00 +20°C° 0 mm 2 mps 633 mmHg 54%
    17:00 +18°C° 0 mm 2 mps 633 mmHg 64%
    18:00 +16°C° 0 mm 2 mps 632 mmHg 73%
    19:00 +15°C° 0 mm 2 mps 632 mmHg 78%
    20:00 +14°C° 0 mm 2 mps 633 mmHg 83%
    21:00 +13°C° 0 mm 2 mps 633 mmHg 88%
    22:00 +12°C° 0 mm 2 mps 633 mmHg 88%
    23:00 +12°C° 0 mm 1 mps 632 mmHg 88%

    28 November, Tuesday

    Time Temperature Precipitation Wind Pressure Humidity
    00:00 +11°C° 0 mm 1 mps 632 mmHg 87%
    01:00 +11°C° 0 mm 1 mps 632 mmHg 87%
    02:00 +11°C° 0 mm 1 mps 631 mmHg 86%
    03:00 +10°C° 0 mm 1 mps 631 mmHg 86%
    04:00 +10°C° 0 mm 1 mps 631 mmHg 85%
    05:00 +10°C° 0 mm 1 mps 631 mmHg 85%
    06:00 +10°C° 0 mm 1 mps 631 mmHg 84%
    07:00 +12°C° 0 mm 1 mps 632 mmHg 74%
    08:00 +15°C° 0 mm 1 mps 633 mmHg 64%
    09:00 +18°C° 0 mm 1 mps 634 mmHg 54%
    10:00 +21°C° 0 mm 1 mps 635 mmHg 48%
    11:00 +23°C° 0 mm 1 mps 635 mmHg 41%
    12:00 +25°C° 0 mm 1 mps 636 mmHg 35%
    13:00 +25°C° 0 mm 1 mps 635 mmHg 34%
    14:00 +25°C° 0 mm 1 mps 634 mmHg 34%
    15:00 +26°C° 0 mm 1 mps 634 mmHg 33%
    16:00 +23°C° 0 mm 1 mps 633 mmHg 43%
    17:00 +21°C° 0 mm 1 mps 632 mmHg 53%
    18:00 +18°C° 0 mm 1 mps 632 mmHg 62%
    19:00 +16°C° 0 mm 1 mps 632 mmHg 68%
    20:00 +15°C° 0 mm 1 mps 633 mmHg 74%
    21:00 +15°C° 0 mm 1 mps 633 mmHg 79%
    22:00 +14°C° 0 mm 1 mps 633 mmHg 81%
    23:00 +14°C° 0 mm 1 mps 632 mmHg 83%

    29 November, Wednesday

    Time Temperature Precipitation Wind Pressure Humidity
    00:00 +13°C° 0 mm 1 mps 632 mmHg 84%
    01:00 +13°C° 0 mm 1 mps 632 mmHg 84%
    02:00 +13°C° 0 mm 1 mps 632 mmHg 85%
    03:00 +12°C° 0 mm 1 mps 631 mmHg 85%
    04:00 +12°C° 0 mm 1 mps 631 mmHg 85%
    05:00 +12°C° 0 mm 1 mps 632 mmHg 85%
    06:00 +12°C° 0 mm 1 mps 632 mmHg 85%
    07:00 +14°C° 0 mm 1 mps 633 mmHg 78%
    08:00 +16°C° 0 mm 1 mps 634 mmHg 70%
    09:00 +20°C° 0 mm 1 mps 636 mmHg 62%
    10:00 +21°C° 0 mm 1 mps 636 mmHg 55%
    11:00 +23°C° 0 mm 2 mps 636 mmHg 48%
    12:00 +25°C° 0 mm 2 mps 637 mmHg 41%
    13:00 +25°C° 0 mm 2 mps 636 mmHg 42%
    14:00 +25°C° 0 mm 2 mps 635 mmHg 42%
    15:00 +25°C° 0 mm 2 mps 635 mmHg 43%
    16:00 +23°C° 0 mm 2 mps 634 mmHg 54%
    17:00 +20°C° 0 mm 2 mps 634 mmHg 65%
    18:00 +17°C° 0 mm 2 mps 633 mmHg 75%
    19:00 +16°C° 0 mm 2 mps 634 mmHg 80%
    20:00 +15°C° 0 mm 2 mps 634 mmHg 84%
    21:00 +14°C° 0 mm 2 mps 634 mmHg 88%
    22:00 +13°C° 0 mm 2 mps 634 mmHg 87%
    23:00 +12°C° 0 mm 2 mps 634 mmHg 86%

    30 November, Thursday

    Time Temperature Precipitation Wind Pressure Humidity
    00:00 +10°C° 0 mm 2 mps 633 mmHg 84%
    01:00 +10°C° 0 mm 2 mps 633 mmHg 83%
    02:00 +9°C° 0 mm 2 mps 632 mmHg 81%
    03:00 +9°C° 0 mm 2 mps 632 mmHg 80%
    04:00 +9°C° 0 mm 2 mps 632 mmHg 79%
    05:00 +8°C° 0 mm 2 mps 632 mmHg 78%
    06:00 +8°C° 0 mm 2 mps 632 mmHg 77%
    07:00 +12°C° 0 mm 2 mps 633 mmHg 69%
    08:00 +14°C° 0 mm 2 mps 635 mmHg 62%
    09:00 +16°C° 0 mm 2 mps 636 mmHg 54%
    10:00 +18°C° 0 mm 2 mps 636 mmHg 52%
    11:00 +20°C° 0 mm 3 mps 636 mmHg 50%
    12:00 +22°C° 0 mm 3 mps 636 mmHg 47%
    13:00 +22°C° 0 mm 3 mps 636 mmHg 49%
    14:00 +22°C° 0 mm 3 mps 635 mmHg 51%
    15:00 +24°C° 0 mm 3 mps 635 mmHg 52%
    16:00 +21°C° 0 mm 3 mps 634 mmHg 61%
    17:00 +19°C° 0 mm 3 mps 634 mmHg 70%
    18:00 +17°C° 0 mm 2 mps 634 mmHg 79%
    19:00 +16°C° 0 mm 2 mps 634 mmHg 83%
    20:00 +15°C° 0 mm 2 mps 634 mmHg 87%
    21:00 +14°C° 0 mm 2 mps 634 mmHg 90%
    22:00 +14°C° 0 mm 2 mps 634 mmHg 91%
    23:00 +14°C° 0 mm 2 mps 634 mmHg 92%
    Show more